533  
ASUS44 KLIX 250311  
RWRLIX  
NEW ORLEANS REGIONAL WEATHER ROUNDUP  
NATIONAL WEATHER SERVICE NEW ORLEANS LA  
1000 PM CDT THU SEP 24 2020  
 
NOTE: "FAIR" INDICATES FEW OR NO CLOUDS BELOW 12,000 FEET WITH NO  
SIGNIFICANT WEATHER AND/OR S TO VISIBILITY
.  
SKY/WX - SKY CONDITION AND SIGNIFICANT WEATHER.  
TMP - AIR TEMPERATURE. DP - DEWPOINT TEMPERATURE.  
RH - RELATIVE HUMIDITY. PRES - PRESSURE.  
HI - HEAT INDEX. WCI - WIND CHILL INDEX.  
 
* THESE STATIONS ARE NOT NWS OR FAA STATIONS AND ARE NOT UNDER  
NWS QUALITY CONTROL.  
 
LAZ038-040-048-061>063-065>067-069-250400-  
SOUTHEAST LOUISIANA  
 
CITY SKY/WX TMP DP RH WIND PRES REMARKS
 
N.O. INTL ARPT MOCLDY 74 68 81 N5 29.91R  
N.O. LAKEFRONT N/A N/A N/A N/A MISG 29.92R  
RESERVE* CLOUDY 73 69 89 N5 29.92R  
SLIDELL CLOUDY 72 70 93 VRB3 29.91R FOG  
BATON ROUGE CLOUDY 69 67 93 NW3 29.92R  
BOOTHVILLE* CLOUDY 76 71 83 MISG 29.92R  
BELLE CHASSE* CLOUDY 75 72 90 N5 29.90R  
BOGALUSA* CLOUDY 70 67 89 N5 29.92R  
GALLIANO* CLOUDY 73 70 88 CALM 29.91R  
NEW ROADS* RAIN 66 66 100 N5 29.93R  
GONZALES* CLOUDY 72 69 90 NE5 29.91S  
HAMMOND* CLOUDY 68 68 100 CALM 29.92R  
HOUMA* CLOUDY 73 68 83 CALM 29.92R  
PORT FOURCHON* CLOUDY 77 68 73 SW9 29.92R  
 

 
 
MSZ070-080>082-250400-  
SOUTHERN MISSISSIPPI  
 
CITY SKY/WX TMP DP RH WIND PRES REMARKS
 
MCCOMB CLOUDY 67 65 93 CALM 29.93R  
GULFPORT CLOUDY 74 68 81 NW8 29.89R  
BILOXI MOCLDY 74 69 86 N5 29.89R  
PASCAGOULA CLOUDY 77 71 82 NW3 29.89R  
 

 
 
COASTAL OBSERVATIONS  
LAKE AND NEARSHORE STATIONS  
 
STATION/POSITION TIME SKY/WX TEMP WIND PRES WAVE
 
AIR SEA DIR/SP/G HT/PER  
(UTC) (F) (DEG/KT/KT) (MB) (FT/S)  
WAVELAND YACHT 0230 77 75 330/ 6/ 7 1012.6  
GRAND ISLE 0230 80 N/A  
SOUTHWEST PASS 0230 78 84 290/ 7/ 13 1011.2  
NEW CANAL 0224 73 76 350/ 7/ 9 1012.0  
SHELL BEACH 0230 75 80 330/ 10/ 12 1012.7  
 
OFFSHORE STATIONS  
 
STATION/POSITION TIME SKY/WX TEMP WIND PRES WAVE
 
AIR SEA DIR/SP/G HT/PER  
(UTC) (F) (DEG/KT/KT) (MB) (FT/S)  
 

 
 
 
 
CLICK HERE TO GO TO PREVIOUS BULLETINS.

The Nexlab LA Page
The Nexlab MS Page Main Text Page